Location: Iroquois Falls
(48.7680°N, 80.6732°W)
Time: 10:55:54
(UTC-05:00)

ISS - Visible Passes

Search period start: 19 February 2018 00:00
Search period end: 01 March 2018 00:00
Orbit: 403 x 407 km, 51.6° (Epoch: 20 February)

Date Brightness Start Highest point End Pass type
(mag) Time Alt. Az. Time Alt. Az. Time Alt. Az.
26 Feb -1.2 06:35:11 10° S 06:37:42 20° SE 06:40:13 10° E visible
27 Feb -0.9 05:44:10 10° SSE 05:45:39 13° SE 05:47:08 10° ESE visible
28 Feb -2.5 06:26:17 10° SW 06:29:22 38° SSE 06:32:27 10° ENE visible
